Tracking 19847 objects as of 17-Sep-2019
HD Live streaming from Space Station
objects crossing your sky now

COSMOS 1275 DEB

Track COSMOS 1275 DEB now!
10-day predictions


NORAD ID: 42130
Int'l Code: 1981-053QS
Perigee: 857.0 km
Apogee: 890.4 km
Inclination: 82.9 °
Period: 102.3 minutes
Semi major axis: 7244 km
RCS: Unknown
Launch date: June 4, 1981
Source: Commonwealth of Independent States (former USSR) (CIS)
Launch site: PLESETSK MISSILE AND SPACE COMPLEX (PKMTR)

Note: This is SATELLITE DEBRIS
aabbcc
Your satellite tracking list
Your tracking list is empty




NASA's NSSDC Master Catalog

Two Line Element Set (TLE):
1 42130U 81053QS  19255.28906392  .00000463  00000-0  26281-3 0  9993
2 42130  82.8595 258.1614 0023022  35.6878 324.5830 14.07894917297870
Source of the keplerian elements: AFSPC